Date_Time,Julian_Date,Latitude,Longitude,Instrument_Depth,Water_Salinity
(yyyy-mm-dd hh:mn:ss UTC),(JD),(+ deg. North),(+ deg. East),(m),(ppt)
1981-01-21 17:30:00 UTC,2444626.229167,29.6650,-93.4789,0073,32.3000
1981-01-21 18:00:00 UTC,2444626.250000,29.6650,-93.4789,0073,32.3000
1981-01-21 18:30:00 UTC,2444626.270833,29.6650,-93.4789,0073,32.3000
1981-01-21 19:00:00 UTC,2444626.291667,29.6650,-93.4789,0073,32.3000
1981-01-21 19:30:00 UTC,2444626.312500,29.6650,-93.4789,0073,32.3000
1981-01-21 20:00:00 UTC,2444626.333333,29.6650,-93.4789,0073,32.3000
1981-01-21 20:30:00 UTC,2444626.354167,29.6650,-93.4789,0073,32.3000
1981-01-21 21:00:00 UTC,2444626.375000,29.6650,-93.4789,0073,32.3000
1981-01-21 21:30:00 UTC,2444626.395833,29.6650,-93.4789,0073,32.3000
1981-01-21 22:00:00 UTC,2444626.416667,29.6650,-93.4789,0073,32.3000
1981-01-21 22:30:00 UTC,2444626.437500,29.6650,-93.4789,0073,32.3000
1981-01-21 23:00:00 UTC,2444626.458333,29.6650,-93.4789,0073,32.4000
1981-01-21 23:30:00 UTC,2444626.479167,29.6650,-93.4789,0073,32.4000
1981-01-22 00:00:00 UTC,2444626.500000,29.6650,-93.4789,0073,32.4000
1981-01-22 00:30:00 UTC,2444626.520833,29.6650,-93.4789,0073,32.4000
1981-01-22 01:00:00 UTC,2444626.541667,29.6650,-93.4789,0073,32.4000
1981-01-22 01:30:00 UTC,2444626.562500,29.6650,-93.4789,0073,32.4000
1981-01-22 02:00:00 UTC,2444626.583333,29.6650,-93.4789,0073,32.4000
1981-01-22 02:30:00 UTC,2444626.604167,29.6650,-93.4789,0073,32.4000
1981-01-22 03:00:00 UTC,2444626.625000,29.6650,-93.4789,0073,32.4000
1981-01-22 03:30:00 UTC,2444626.645833,29.6650,-93.4789,0073,32.4000
1981-01-22 04:00:00 UTC,2444626.666667,29.6650,-93.4789,0073,32.3000
1981-01-22 04:30:00 UTC,2444626.687500,29.6650,-93.4789,0073,32.4000
1981-01-22 05:00:00 UTC,2444626.708333,29.6650,-93.4789,0073,32.4000
1981-01-22 05:30:00 UTC,2444626.729167,29.6650,-93.4789,0073,32.4000
1981-01-22 06:00:00 UTC,2444626.750000,29.6650,-93.4789,0073,32.4000
1981-01-22 06:30:00 UTC,2444626.770833,29.6650,-93.4789,0073,32.4000
1981-01-22 07:00:00 UTC,2444626.791667,29.6650,-93.4789,0073,32.4000
1981-01-22 07:30:00 UTC,2444626.812500,29.6650,-93.4789,0073,32.5000
1981-01-22 08:00:00 UTC,2444626.833333,29.6650,-93.4789,0073,32.5000
1981-01-22 08:30:00 UTC,2444626.854167,29.6650,-93.4789,0073,32.5000
1981-01-22 09:00:00 UTC,2444626.875000,29.6650,-93.4789,0073,32.5000
1981-01-22 09:30:00 UTC,2444626.895833,29.6650,-93.4789,0073,32.5000
1981-01-22 10:00:00 UTC,2444626.916667,29.6650,-93.4789,0073,32.5000
1981-01-22 10:30:00 UTC,2444626.937500,29.6650,-93.4789,0073,32.4000
1981-01-22 11:00:00 UTC,2444626.958333,29.6650,-93.4789,0073,32.4000
1981-01-22 11:30:00 UTC,2444626.979167,29.6650,-93.4789,0073,32.5000
1981-01-22 12:00:00 UTC,2444627.000000,29.6650,-93.4789,0073,32.5000
1981-01-22 12:30:00 UTC,2444627.020833,29.6650,-93.4789,0073,32.4000
1981-01-22 13:00:00 UTC,2444627.041667,29.6650,-93.4789,0073,32.4000
1981-01-22 13:30:00 UTC,2444627.062500,29.6650,-93.4789,0073,32.4000
1981-01-22 14:00:00 UTC,2444627.083333,29.6650,-93.4789,0073,32.4000
1981-01-22 14:30:00 UTC,2444627.104167,29.6650,-93.4789,0073,32.3000
1981-01-22 15:00:00 UTC,2444627.125000,29.6650,-93.4789,0073,32.3000
1981-01-22 15:30:00 UTC,2444627.145833,29.6650,-93.4789,0073,32.3000
1981-01-22 16:00:00 UTC,2444627.166667,29.6650,-93.4789,0073,32.3000
1981-01-22 16:30:00 UTC,2444627.187500,29.6650,-93.4789,0073,32.3000
1981-01-22 17:00:00 UTC,2444627.208333,29.6650,-93.4789,0073,32.3000
1981-01-22 17:30:00 UTC,2444627.229167,29.6650,-93.4789,0073,32.3000
1981-01-22 18:00:00 UTC,2444627.250000,29.6650,-93.4789,0073,32.4000
1981-01-22 18:30:00 UTC,2444627.270833,29.6650,-93.4789,0073,32.4000
1981-01-22 19:00:00 UTC,2444627.291667,29.6650,-93.4789,0073,32.4000
1981-01-22 19:30:00 UTC,2444627.312500,29.6650,-93.4789,0073,32.4000
1981-01-22 20:00:00 UTC,2444627.333333,29.6650,-93.4789,0073,32.4000
1981-01-22 20:30:00 UTC,2444627.354167,29.6650,-93.4789,0073,32.5000
1981-01-22 21:00:00 UTC,2444627.375000,29.6650,-93.4789,0073,32.5000
1981-01-22 21:30:00 UTC,2444627.395833,29.6650,-93.4789,0073,32.5000
1981-01-22 22:00:00 UTC,2444627.416667,29.6650,-93.4789,0073,32.5000
1981-01-22 22:30:00 UTC,2444627.437500,29.6650,-93.4789,0073,32.5000
1981-01-22 23:00:00 UTC,2444627.458333,29.6650,-93.4789,0073,32.5000
1981-01-22 23:30:00 UTC,2444627.479167,29.6650,-93.4789,0073,32.5000
1981-01-23 00:00:00 UTC,2444627.500000,29.6650,-93.4789,0073,32.5000
1981-01-23 00:30:00 UTC,2444627.520833,29.6650,-93.4789,0073,32.5000
1981-01-23 01:00:00 UTC,2444627.541667,29.6650,-93.4789,0073,32.5000
1981-01-23 01:30:00 UTC,2444627.562500,29.6650,-93.4789,0073,32.5000
1981-01-23 02:00:00 UTC,2444627.583333,29.6650,-93.4789,0073,32.5000
1981-01-23 02:30:00 UTC,2444627.604167,29.6650,-93.4789,0073,32.5000
1981-01-23 03:00:00 UTC,2444627.625000,29.6650,-93.4789,0073,32.5000
1981-01-23 03:30:00 UTC,2444627.645833,29.6650,-93.4789,0073,32.5000
1981-01-23 04:00:00 UTC,2444627.666667,29.6650,-93.4789,0073,32.4000
1981-01-23 04:30:00 UTC,2444627.687500,29.6650,-93.4789,0073,32.4000
1981-01-23 05:00:00 UTC,2444627.708333,29.6650,-93.4789,0073,32.4000
1981-01-23 05:30:00 UTC,2444627.729167,29.6650,-93.4789,0073,32.4000
1981-01-23 06:00:00 UTC,2444627.750000,29.6650,-93.4789,0073,32.4000
1981-01-23 06:30:00 UTC,2444627.770833,29.6650,-93.4789,0073,32.4000
1981-01-23 07:00:00 UTC,2444627.791667,29.6650,-93.4789,0073,32.4000
1981-01-23 07:30:00 UTC,2444627.812500,29.6650,-93.4789,0073,32.4000
1981-01-23 08:00:00 UTC,2444627.833333,29.6650,-93.4789,0073,32.4000
1981-01-23 08:30:00 UTC,2444627.854167,29.6650,-93.4789,0073,32.4000
1981-01-23 09:00:00 UTC,2444627.875000,29.6650,-93.4789,0073,32.4000
1981-01-23 09:30:00 UTC,2444627.895833,29.6650,-93.4789,0073,32.4000
1981-01-23 10:00:00 UTC,2444627.916667,29.6650,-93.4789,0073,32.3000
1981-01-23 10:30:00 UTC,2444627.937500,29.6650,-93.4789,0073,32.3000
1981-01-23 11:00:00 UTC,2444627.958333,29.6650,-93.4789,0073,32.3000
1981-01-23 11:30:00 UTC,2444627.979167,29.6650,-93.4789,0073,32.3000
1981-01-23 12:00:00 UTC,2444628.000000,29.6650,-93.4789,0073,32.3000
1981-01-23 12:30:00 UTC,2444628.020833,29.6650,-93.4789,0073,32.2000
1981-01-23 13:00:00 UTC,2444628.041667,29.6650,-93.4789,0073,32.1000
1981-01-23 13:30:00 UTC,2444628.062500,29.6650,-93.4789,0073,32.1000
1981-01-23 14:00:00 UTC,2444628.083333,29.6650,-93.4789,0073,32.1000
1981-01-23 14:30:00 UTC,2444628.104167,29.6650,-93.4789,0073,32.0000
1981-01-23 15:00:00 UTC,2444628.125000,29.6650,-93.4789,0073,32.0000
1981-01-23 15:30:00 UTC,2444628.145833,29.6650,-93.4789,0073,31.9000
1981-01-23 16:00:00 UTC,2444628.166667,29.6650,-93.4789,0073,31.9000
1981-01-23 16:30:00 UTC,2444628.187500,29.6650,-93.4789,0073,31.9000
1981-01-23 17:00:00 UTC,2444628.208333,29.6650,-93.4789,0073,31.9000
1981-01-23 17:30:00 UTC,2444628.229167,29.6650,-93.4789,0073,31.9000
1981-01-23 18:00:00 UTC,2444628.250000,29.6650,-93.4789,0073,31.9000
1981-01-23 18:30:00 UTC,2444628.270833,29.6650,-93.4789,0073,31.9000
1981-01-23 19:00:00 UTC,2444628.291667,29.6650,-93.4789,0073,31.9000
1981-01-23 19:30:00 UTC,2444628.312500,29.6650,-93.4789,0073,31.9000
1981-01-23 20:00:00 UTC,2444628.333333,29.6650,-93.4789,0073,32.0000
1981-01-23 20:30:00 UTC,2444628.354167,29.6650,-93.4789,0073,32.0000
1981-01-23 21:00:00 UTC,2444628.375000,29.6650,-93.4789,0073,32.1000
1981-01-23 21:30:00 UTC,2444628.395833,29.6650,-93.4789,0073,32.1000
1981-01-23 22:00:00 UTC,2444628.416667,29.6650,-93.4789,0073,32.1000
1981-01-23 22:30:00 UTC,2444628.437500,29.6650,-93.4789,0073,32.1000
1981-01-23 23:00:00 UTC,2444628.458333,29.6650,-93.4789,0073,32.1000
1981-01-23 23:30:00 UTC,2444628.479167,29.6650,-93.4789,0073,32.1000
1981-01-24 00:00:00 UTC,2444628.500000,29.6650,-93.4789,0073,32.1000
1981-01-24 00:30:00 UTC,2444628.520833,29.6650,-93.4789,0073,32.1000
1981-01-24 01:00:00 UTC,2444628.541667,29.6650,-93.4789,0073,32.1000
1981-01-24 01:30:00 UTC,2444628.562500,29.6650,-93.4789,0073,32.1000
1981-01-24 02:00:00 UTC,2444628.583333,29.6650,-93.4789,0073,32.1000
1981-01-24 02:30:00 UTC,2444628.604167,29.6650,-93.4789,0073,32.1000
1981-01-24 03:00:00 UTC,2444628.625000,29.6650,-93.4789,0073,32.1000
1981-01-24 03:30:00 UTC,2444628.645833,29.6650,-93.4789,0073,32.1000
1981-01-24 04:00:00 UTC,2444628.666667,29.6650,-93.4789,0073,32.1000
1981-01-24 04:30:00 UTC,2444628.687500,29.6650,-93.4789,0073,32.2000
1981-01-24 05:00:00 UTC,2444628.708333,29.6650,-93.4789,0073,32.2000
1981-01-24 05:30:00 UTC,2444628.729167,29.6650,-93.4789,0073,32.2000
1981-01-24 06:00:00 UTC,2444628.750000,29.6650,-93.4789,0073,32.2000
1981-01-24 06:30:00 UTC,2444628.770833,29.6650,-93.4789,0073,32.2000
1981-01-24 07:00:00 UTC,2444628.791667,29.6650,-93.4789,0073,32.2000
1981-01-24 07:30:00 UTC,2444628.812500,29.6650,-93.4789,0073,32.3000
1981-01-24 08:00:00 UTC,2444628.833333,29.6650,-93.4789,0073,32.3000
1981-01-24 08:30:00 UTC,2444628.854167,29.6650,-93.4789,0073,32.3000
1981-01-24 09:00:00 UTC,2444628.875000,29.6650,-93.4789,0073,32.3000
1981-01-24 09:30:00 UTC,2444628.895833,29.6650,-93.4789,0073,32.3000
1981-01-24 10:00:00 UTC,2444628.916667,29.6650,-93.4789,0073,32.3000
1981-01-24 10:30:00 UTC,2444628.937500,29.6650,-93.4789,0073,32.3000
1981-01-24 11:00:00 UTC,2444628.958333,29.6650,-93.4789,0073,32.3000
1981-01-24 11:30:00 UTC,2444628.979167,29.6650,-93.4789,0073,32.3000
1981-01-24 12:00:00 UTC,2444629.000000,29.6650,-93.4789,0073,32.3000
1981-01-24 12:30:00 UTC,2444629.020833,29.6650,-93.4789,0073,32.3000
1981-01-24 13:00:00 UTC,2444629.041667,29.6650,-93.4789,0073,32.3000
1981-01-24 13:30:00 UTC,2444629.062500,29.6650,-93.4789,0073,32.3000
1981-01-24 14:00:00 UTC,2444629.083333,29.6650,-93.4789,0073,32.2000
1981-01-24 14:30:00 UTC,2444629.104167,29.6650,-93.4789,0073,32.2000
1981-01-24 15:00:00 UTC,2444629.125000,29.6650,-93.4789,0073,32.2000
1981-01-24 15:30:00 UTC,2444629.145833,29.6650,-93.4789,0073,32.2000
1981-01-24 16:00:00 UTC,2444629.166667,29.6650,-93.4789,0073,32.2000
1981-01-24 16:30:00 UTC,2444629.187500,29.6650,-93.4789,0073,32.2000
1981-01-24 17:00:00 UTC,2444629.208333,29.6650,-93.4789,0073,32.2000
1981-01-24 17:30:00 UTC,2444629.229167,29.6650,-93.4789,0073,32.2000
1981-01-24 18:00:00 UTC,2444629.250000,29.6650,-93.4789,0073,32.2000
1981-01-24 18:30:00 UTC,2444629.270833,29.6650,-93.4789,0073,32.1000
1981-01-24 19:00:00 UTC,2444629.291667,29.6650,-93.4789,0073,32.1000
1981-01-24 19:30:00 UTC,2444629.312500,29.6650,-93.4789,0073,32.1000
1981-01-24 20:00:00 UTC,2444629.333333,29.6650,-93.4789,0073,32.1000
1981-01-24 20:30:00 UTC,2444629.354167,29.6650,-93.4789,0073,32.2000
1981-01-24 21:00:00 UTC,2444629.375000,29.6650,-93.4789,0073,32.2000
1981-01-24 21:30:00 UTC,2444629.395833,29.6650,-93.4789,0073,32.2000
1981-01-24 22:00:00 UTC,2444629.416667,29.6650,-93.4789,0073,32.2000
1981-01-24 22:30:00 UTC,2444629.437500,29.6650,-93.4789,0073,32.1000
1981-01-24 23:00:00 UTC,2444629.458333,29.6650,-93.4789,0073,32.1000
1981-01-24 23:30:00 UTC,2444629.479167,29.6650,-93.4789,0073,32.1000
1981-01-25 00:00:00 UTC,2444629.500000,29.6650,-93.4789,0073,32.1000
1981-01-25 00:30:00 UTC,2444629.520833,29.6650,-93.4789,0073,32.1000
1981-01-25 01:00:00 UTC,2444629.541667,29.6650,-93.4789,0073,32.1000
1981-01-25 01:30:00 UTC,2444629.562500,29.6650,-93.4789,0073,32.1000
1981-01-25 02:00:00 UTC,2444629.583333,29.6650,-93.4789,0073,32.1000
1981-01-25 02:30:00 UTC,2444629.604167,29.6650,-93.4789,0073,32.1000
1981-01-25 03:00:00 UTC,2444629.625000,29.6650,-93.4789,0073,32.1000
1981-01-25 03:30:00 UTC,2444629.645833,29.6650,-93.4789,0073,32.1000
1981-01-25 04:00:00 UTC,2444629.666667,29.6650,-93.4789,0073,32.1000
1981-01-25 04:30:00 UTC,2444629.687500,29.6650,-93.4789,0073,32.1000
1981-01-25 05:00:00 UTC,2444629.708333,29.6650,-93.4789,0073,32.1000
1981-01-25 05:30:00 UTC,2444629.729167,29.6650,-93.4789,0073,32.1000
1981-01-25 06:00:00 UTC,2444629.750000,29.6650,-93.4789,0073,32.0000
1981-01-25 06:30:00 UTC,2444629.770833,29.6650,-93.4789,0073,32.1000
1981-01-25 07:00:00 UTC,2444629.791667,29.6650,-93.4789,0073,32.1000
1981-01-25 07:30:00 UTC,2444629.812500,29.6650,-93.4789,0073,32.1000
1981-01-25 08:00:00 UTC,2444629.833333,29.6650,-93.4789,0073,32.2000
1981-01-25 08:30:00 UTC,2444629.854167,29.6650,-93.4789,0073,32.2000
1981-01-25 09:00:00 UTC,2444629.875000,29.6650,-93.4789,0073,32.2000
1981-01-25 09:30:00 UTC,2444629.895833,29.6650,-93.4789,0073,32.2000
1981-01-25 10:00:00 UTC,2444629.916667,29.6650,-93.4789,0073,32.2000
1981-01-25 10:30:00 UTC,2444629.937500,29.6650,-93.4789,0073,32.2000
1981-01-25 11:00:00 UTC,2444629.958333,29.6650,-93.4789,0073,32.2000
1981-01-25 11:30:00 UTC,2444629.979167,29.6650,-93.4789,0073,32.1000
1981-01-25 12:00:00 UTC,2444630.000000,29.6650,-93.4789,0073,32.2000
1981-01-25 12:30:00 UTC,2444630.020833,29.6650,-93.4789,0073,32.2000
1981-01-25 13:00:00 UTC,2444630.041667,29.6650,-93.4789,0073,32.2000
1981-01-25 13:30:00 UTC,2444630.062500,29.6650,-93.4789,0073,32.1000
1981-01-25 14:00:00 UTC,2444630.083333,29.6650,-93.4789,0073,32.1000
1981-01-25 14:30:00 UTC,2444630.104167,29.6650,-93.4789,0073,32.1000
1981-01-25 15:00:00 UTC,2444630.125000,29.6650,-93.4789,0073,32.1000
1981-01-25 15:30:00 UTC,2444630.145833,29.6650,-93.4789,0073,32.1000
1981-01-25 16:00:00 UTC,2444630.166667,29.6650,-93.4789,0073,32.1000
1981-01-25 16:30:00 UTC,2444630.187500,29.6650,-93.4789,0073,32.1000
1981-01-25 17:00:00 UTC,2444630.208333,29.6650,-93.4789,0073,32.1000
1981-01-25 17:30:00 UTC,2444630.229167,29.6650,-93.4789,0073,32.1000
1981-01-25 18:00:00 UTC,2444630.250000,29.6650,-93.4789,0073,32.1000
1981-01-25 18:30:00 UTC,2444630.270833,29.6650,-93.4789,0073,32.1000
1981-01-25 19:00:00 UTC,2444630.291667,29.6650,-93.4789,0073,32.1000
1981-01-25 19:30:00 UTC,2444630.312500,29.6650,-93.4789,0073,32.1000
1981-01-25 20:00:00 UTC,2444630.333333,29.6650,-93.4789,0073,32.1000
1981-01-25 20:30:00 UTC,2444630.354167,29.6650,-93.4789,0073,32.1000
1981-01-25 21:00:00 UTC,2444630.375000,29.6650,-93.4789,0073,32.1000
1981-01-25 21:30:00 UTC,2444630.395833,29.6650,-93.4789,0073,32.1000
1981-01-25 22:00:00 UTC,2444630.416667,29.6650,-93.4789,0073,32.1000
1981-01-25 22:30:00 UTC,2444630.437500,29.6650,-93.4789,0073,32.1000
1981-01-25 23:00:00 UTC,2444630.458333,29.6650,-93.4789,0073,32.1000
1981-01-25 23:30:00 UTC,2444630.479167,29.6650,-93.4789,0073,32.1000
1981-01-26 00:00:00 UTC,2444630.500000,29.6650,-93.4789,0073,32.1000
1981-01-26 00:30:00 UTC,2444630.520833,29.6650,-93.4789,0073,32.1000
1981-01-26 01:00:00 UTC,2444630.541667,29.6650,-93.4789,0073,32.1000
1981-01-26 01:30:00 UTC,2444630.562500,29.6650,-93.4789,0073,32.2000
1981-01-26 02:00:00 UTC,2444630.583333,29.6650,-93.4789,0073,32.1000
1981-01-26 02:30:00 UTC,2444630.604167,29.6650,-93.4789,0073,32.1000
1981-01-26 03:00:00 UTC,2444630.625000,29.6650,-93.4789,0073,32.1000
1981-01-26 03:30:00 UTC,2444630.645833,29.6650,-93.4789,0073,32.1000
1981-01-26 04:00:00 UTC,2444630.666667,29.6650,-93.4789,0073,32.1000
1981-01-26 04:30:00 UTC,2444630.687500,29.6650,-93.4789,0073,32.1000
1981-01-26 05:00:00 UTC,2444630.708333,29.6650,-93.4789,0073,32.1000
1981-01-26 05:30:00 UTC,2444630.729167,29.6650,-93.4789,0073,32.1000
1981-01-26 06:00:00 UTC,2444630.750000,29.6650,-93.4789,0073,32.1000
1981-01-26 06:30:00 UTC,2444630.770833,29.6650,-93.4789,0073,32.1000
1981-01-26 07:00:00 UTC,2444630.791667,29.6650,-93.4789,0073,32.1000
1981-01-26 07:30:00 UTC,2444630.812500,29.6650,-93.4789,0073,32.0000
1981-01-26 08:00:00 UTC,2444630.833333,29.6650,-93.4789,0073,32.0000
1981-01-26 08:30:00 UTC,2444630.854167,29.6650,-93.4789,0073,32.0000
1981-01-26 09:00:00 UTC,2444630.875000,29.6650,-93.4789,0073,32.0000
1981-01-26 09:30:00 UTC,2444630.895833,29.6650,-93.4789,0073,32.0000
1981-01-26 10:00:00 UTC,2444630.916667,29.6650,-93.4789,0073,32.0000
1981-01-26 10:30:00 UTC,2444630.937500,29.6650,-93.4789,0073,32.0000
1981-01-26 11:00:00 UTC,2444630.958333,29.6650,-93.4789,0073,32.0000
1981-01-26 11:30:00 UTC,2444630.979167,29.6650,-93.4789,0073,31.9000
1981-01-26 12:00:00 UTC,2444631.000000,29.6650,-93.4789,0073,31.9000
1981-01-26 12:30:00 UTC,2444631.020833,29.6650,-93.4789,0073,31.9000
1981-01-26 13:00:00 UTC,2444631.041667,29.6650,-93.4789,0073,31.9000
1981-01-26 13:30:00 UTC,2444631.062500,29.6650,-93.4789,0073,31.9000
1981-01-26 14:00:00 UTC,2444631.083333,29.6650,-93.4789,0073,32.0000
1981-01-26 14:30:00 UTC,2444631.104167,29.6650,-93.4789,0073,32.0000
1981-01-26 15:00:00 UTC,2444631.125000,29.6650,-93.4789,0073,32.0000
1981-01-26 15:30:00 UTC,2444631.145833,29.6650,-93.4789,0073,32.0000
1981-01-26 16:00:00 UTC,2444631.166667,29.6650,-93.4789,0073,32.0000
1981-01-26 16:30:00 UTC,2444631.187500,29.6650,-93.4789,0073,32.0000
1981-01-26 17:00:00 UTC,2444631.208333,29.6650,-93.4789,0073,32.0000
1981-01-26 17:30:00 UTC,2444631.229167,29.6650,-93.4789,0073,31.9000
1981-01-26 18:00:00 UTC,2444631.250000,29.6650,-93.4789,0073,31.9000
1981-01-26 18:30:00 UTC,2444631.270833,29.6650,-93.4789,0073,31.9000
1981-01-26 19:00:00 UTC,2444631.291667,29.6650,-93.4789,0073,32.0000
1981-01-26 19:30:00 UTC,2444631.312500,29.6650,-93.4789,0073,32.0000
1981-01-26 20:00:00 UTC,2444631.333333,29.6650,-93.4789,0073,32.0000
1981-01-26 20:30:00 UTC,2444631.354167,29.6650,-93.4789,0073,32.0000
1981-01-26 21:00:00 UTC,2444631.375000,29.6650,-93.4789,0073,32.1000
1981-01-26 21:30:00 UTC,2444631.395833,29.6650,-93.4789,0073,32.1000
1981-01-26 22:00:00 UTC,2444631.416667,29.6650,-93.4789,0073,32.0000
1981-01-26 22:30:00 UTC,2444631.437500,29.6650,-93.4789,0073,32.0000
1981-01-26 23:00:00 UTC,2444631.458333,29.6650,-93.4789,0073,32.0000
1981-01-26 23:30:00 UTC,2444631.479167,29.6650,-93.4789,0073,32.0000
1981-01-27 00:00:00 UTC,2444631.500000,29.6650,-93.4789,0073,32.0000
1981-01-27 00:30:00 UTC,2444631.520833,29.6650,-93.4789,0073,32.0000
1981-01-27 01:00:00 UTC,2444631.541667,29.6650,-93.4789,0073,32.0000
1981-01-27 01:30:00 UTC,2444631.562500,29.6650,-93.4789,0073,32.0000
1981-01-27 02:00:00 UTC,2444631.583333,29.6650,-93.4789,0073,32.0000
1981-01-27 02:30:00 UTC,2444631.604167,29.6650,-93.4789,0073,32.0000
1981-01-27 03:00:00 UTC,2444631.625000,29.6650,-93.4789,0073,32.0000
1981-01-27 03:30:00 UTC,2444631.645833,29.6650,-93.4789,0073,32.0000
1981-01-27 04:00:00 UTC,2444631.666667,29.6650,-93.4789,0073,31.9000
1981-01-27 04:30:00 UTC,2444631.687500,29.6650,-93.4789,0073,31.9000
1981-01-27 05:00:00 UTC,2444631.708333,29.6650,-93.4789,0073,31.9000
1981-01-27 05:30:00 UTC,2444631.729167,29.6650,-93.4789,0073,31.9000
1981-01-27 06:00:00 UTC,2444631.750000,29.6650,-93.4789,0073,31.9000
1981-01-27 06:30:00 UTC,2444631.770833,29.6650,-93.4789,0073,31.9000
1981-01-27 07:00:00 UTC,2444631.791667,29.6650,-93.4789,0073,31.9000
1981-01-27 07:30:00 UTC,2444631.812500,29.6650,-93.4789,0073,31.9000
1981-01-27 08:00:00 UTC,2444631.833333,29.6650,-93.4789,0073,31.9000
1981-01-27 08:30:00 UTC,2444631.854167,29.6650,-93.4789,0073,31.9000
1981-01-27 09:00:00 UTC,2444631.875000,29.6650,-93.4789,0073,31.8000
1981-01-27 09:30:00 UTC,2444631.895833,29.6650,-93.4789,0073,31.9000
1981-01-27 10:00:00 UTC,2444631.916667,29.6650,-93.4789,0073,31.9000
1981-01-27 10:30:00 UTC,2444631.937500,29.6650,-93.4789,0073,31.8000
1981-01-27 11:00:00 UTC,2444631.958333,29.6650,-93.4789,0073,31.8000
1981-01-27 11:30:00 UTC,2444631.979167,29.6650,-93.4789,0073,31.8000
1981-01-27 12:00:00 UTC,2444632.000000,29.6650,-93.4789,0073,31.7000
1981-01-27 12:30:00 UTC,2444632.020833,29.6650,-93.4789,0073,31.7000
1981-01-27 13:00:00 UTC,2444632.041667,29.6650,-93.4789,0073,31.7000
1981-01-27 13:30:00 UTC,2444632.062500,29.6650,-93.4789,0073,31.7000
1981-01-27 14:00:00 UTC,2444632.083333,29.6650,-93.4789,0073,31.7000
1981-01-27 14:30:00 UTC,2444632.104167,29.6650,-93.4789,0073,31.8000
1981-01-27 15:00:00 UTC,2444632.125000,29.6650,-93.4789,0073,31.8000
1981-01-27 15:30:00 UTC,2444632.145833,29.6650,-93.4789,0073,31.8000
1981-01-27 16:00:00 UTC,2444632.166667,29.6650,-93.4789,0073,31.8000
1981-01-27 16:30:00 UTC,2444632.187500,29.6650,-93.4789,0073,31.7000
1981-01-27 17:00:00 UTC,2444632.208333,29.6650,-93.4789,0073,31.7000
1981-01-27 17:30:00 UTC,2444632.229167,29.6650,-93.4789,0073,31.7000
1981-01-27 18:00:00 UTC,2444632.250000,29.6650,-93.4789,0073,31.7000
1981-01-27 18:30:00 UTC,2444632.270833,29.6650,-93.4789,0073,31.8000
1981-01-27 19:00:00 UTC,2444632.291667,29.6650,-93.4789,0073,31.9000
1981-01-27 19:30:00 UTC,2444632.312500,29.6650,-93.4789,0073,32.0000
1981-01-27 20:00:00 UTC,2444632.333333,29.6650,-93.4789,0073,32.0000
1981-01-27 20:30:00 UTC,2444632.354167,29.6650,-93.4789,0073,32.0000
1981-01-27 21:00:00 UTC,2444632.375000,29.6650,-93.4789,0073,32.0000
1981-01-27 21:30:00 UTC,2444632.395833,29.6650,-93.4789,0073,32.0000
1981-01-27 22:00:00 UTC,2444632.416667,29.6650,-93.4789,0073,32.0000
1981-01-27 22:30:00 UTC,2444632.437500,29.6650,-93.4789,0073,32.0000
1981-01-27 23:00:00 UTC,2444632.458333,29.6650,-93.4789,0073,32.0000
1981-01-27 23:30:00 UTC,2444632.479167,29.6650,-93.4789,0073,32.1000
1981-01-28 00:00:00 UTC,2444632.500000,29.6650,-93.4789,0073,32.1000
1981-01-28 00:30:00 UTC,2444632.520833,29.6650,-93.4789,0073,32.1000
1981-01-28 01:00:00 UTC,2444632.541667,29.6650,-93.4789,0073,32.1000
1981-01-28 01:30:00 UTC,2444632.562500,29.6650,-93.4789,0073,32.1000
1981-01-28 02:00:00 UTC,2444632.583333,29.6650,-93.4789,0073,32.1000
1981-01-28 02:30:00 UTC,2444632.604167,29.6650,-93.4789,0073,32.1000
1981-01-28 03:00:00 UTC,2444632.625000,29.6650,-93.4789,0073,32.1000
1981-01-28 03:30:00 UTC,2444632.645833,29.6650,-93.4789,0073,32.1000
1981-01-28 04:00:00 UTC,2444632.666667,29.6650,-93.4789,0073,32.1000
1981-01-28 04:30:00 UTC,2444632.687500,29.6650,-93.4789,0073,32.2000
1981-01-28 05:00:00 UTC,2444632.708333,29.6650,-93.4789,0073,32.1000
1981-01-28 05:30:00 UTC,2444632.729167,29.6650,-93.4789,0073,32.1000
1981-01-28 06:00:00 UTC,2444632.750000,29.6650,-93.4789,0073,32.2000
1981-01-28 06:30:00 UTC,2444632.770833,29.6650,-93.4789,0073,32.1000
1981-01-28 07:00:00 UTC,2444632.791667,29.6650,-93.4789,0073,32.1000
1981-01-28 07:30:00 UTC,2444632.812500,29.6650,-93.4789,0073,32.1000
1981-01-28 08:00:00 UTC,2444632.833333,29.6650,-93.4789,0073,32.0000
1981-01-28 08:30:00 UTC,2444632.854167,29.6650,-93.4789,0073,32.0000
1981-01-28 09:00:00 UTC,2444632.875000,29.6650,-93.4789,0073,32.0000
1981-01-28 09:30:00 UTC,2444632.895833,29.6650,-93.4789,0073,32.0000
1981-01-28 10:00:00 UTC,2444632.916667,29.6650,-93.4789,0073,32.0000
1981-01-28 10:30:00 UTC,2444632.937500,29.6650,-93.4789,0073,32.0000
1981-01-28 11:00:00 UTC,2444632.958333,29.6650,-93.4789,0073,32.0000
1981-01-28 11:30:00 UTC,2444632.979167,29.6650,-93.4789,0073,32.0000
1981-01-28 12:00:00 UTC,2444633.000000,29.6650,-93.4789,0073,32.1000
1981-01-28 12:30:00 UTC,2444633.020833,29.6650,-93.4789,0073,32.0000
1981-01-28 13:00:00 UTC,2444633.041667,29.6650,-93.4789,0073,32.0000
1981-01-28 13:30:00 UTC,2444633.062500,29.6650,-93.4789,0073,32.0000
1981-01-28 14:00:00 UTC,2444633.083333,29.6650,-93.4789,0073,32.0000
1981-01-28 14:30:00 UTC,2444633.104167,29.6650,-93.4789,0073,32.0000
1981-01-28 15:00:00 UTC,2444633.125000,29.6650,-93.4789,0073,31.9000
1981-01-28 15:30:00 UTC,2444633.145833,29.6650,-93.4789,0073,31.9000
1981-01-28 16:00:00 UTC,2444633.166667,29.6650,-93.4789,0073,31.9000
1981-01-28 16:30:00 UTC,2444633.187500,29.6650,-93.4789,0073,31.9000
1981-01-28 17:00:00 UTC,2444633.208333,29.6650,-93.4789,0073,31.9000
1981-01-28 17:30:00 UTC,2444633.229167,29.6650,-93.4789,0073,31.9000
1981-01-28 18:00:00 UTC,2444633.250000,29.6650,-93.4789,0073,31.9000
1981-01-28 18:30:00 UTC,2444633.270833,29.6650,-93.4789,0073,31.8000
1981-01-28 19:00:00 UTC,2444633.291667,29.6650,-93.4789,0073,31.8000
1981-01-28 19:30:00 UTC,2444633.312500,29.6650,-93.4789,0073,31.8000
1981-01-28 20:00:00 UTC,2444633.333333,29.6650,-93.4789,0073,31.7000
1981-01-28 20:30:00 UTC,2444633.354167,29.6650,-93.4789,0073,31.7000
1981-01-28 21:00:00 UTC,2444633.375000,29.6650,-93.4789,0073,31.7000
1981-01-28 21:30:00 UTC,2444633.395833,29.6650,-93.4789,0073,31.7000